Home > Time Zones > World Clock > Weather > Mali > Bamako > Past weeks

Flag for Mali Weather past 2 weeks in Bamako, Mali

Now
84 °F

Clear.


Feels Like: 87 °F
Forecast: 83 / 101 °F
Wind: 3 mph from Southwest

Location: Bamako / Senou

Current Time: May 25, 2015 at 2:19:37 AM

Latest Report: May 25, 2015 at 1:00 AM


Visibility: 10 mi

Pressure: 29.95 "Hg

Humidity: 55%

Dew point: 66 °F

Location of BamakoLocation

Historic Weather in Bamako — Graph

°F

Bamako temperature yesterday

Maximum temperature yesterday: 95 °F (at 12:30 PM)
Minimum temperature yesterday: 79 °F (at 5:00 AM)
Average temperature yesterday: 87 °F

Past Weeks' High & Low Weather Summary

 TemperatureHumidityPressure
High108 °F (May 15, 4:00 PM)89% (May 14, 2:30 AM)30.09 "Hg (May 14, 2:30 AM)
Low75 °F (May 10, 2:00 AM)11% (May 15, 4:00 PM)29.77 "Hg (May 15, 4:00 PM)
Average89 °F49%29.91 "Hg
* Reported May 10 2:00 AM — May 25 1:00 AM, Bamako, Weather by CustomWeather, © 2015

Note: Actual official high and low records may vary slightly from our data, if they occured in-between our weather recording intervals... More about our weather records

Advertising

Bamako weather history for previous 24 hours

 ConditionsComfort  
Time TempWeatherWind HumidityBarometerVisibility
1:00 AM
Mon, May 25
84 °FClear.3 mph55%29.95 "Hg10 mi
12:30 AM86 °FClear.6 mph49%29.95 "Hg10 mi
12:00 AM84 °FClear.7 mph58%29.92 "Hg10 mi
11:30 PM
Sun, May 24
86 °FPassing clouds.7 mph49%29.95 "HgN/A
11:00 PM88 °FClear.8 mph46%29.95 "Hg10 mi
10:30 PM88 °FClear.7 mph46%29.95 "Hg10 mi
10:00 PM88 °FClear.6 mph46%29.95 "Hg10 mi
9:30 PM88 °FClear.7 mph49%29.95 "Hg10 mi
9:00 PM88 °FClear.7 mph49%29.92 "Hg10 mi
8:30 PM90 °FClear.7 mph46%29.92 "Hg10 mi
8:00 PM90 °FClear.7 mph46%29.92 "Hg10 mi
7:30 PM90 °FClear.7 mph43%29.89 "Hg10 mi
7:00 PM90 °FClear.9 mph46%29.89 "Hg10 mi
6:30 PM91 °FSunny.10 mph44%29.89 "Hg10 mi
6:00 PM93 °FSunny.8 mph41%29.89 "Hg10 mi
5:30 PM93 °FPassing clouds.9 mph39%29.89 "HgN/A
5:00 PM93 °FPassing clouds.8 mph39%29.86 "HgN/A
4:30 PM93 °FPartly sunny.9 mph39%29.89 "HgN/A
4:00 PM93 °FPartly sunny.13 mph41%29.89 "HgN/A
3:30 PM95 °FPartly sunny.14 mph39%29.92 "HgN/A
3:00 PM95 °FBroken clouds.13 mph36%29.92 "HgN/A
2:30 PM95 °FBroken clouds.14 mph36%29.92 "HgN/A
2:00 PM95 °FBroken clouds.15 mph36%29.95 "HgN/A
1:30 PM95 °FPartly sunny.14 mph36%29.95 "HgN/A
1:00 PM93 °FPartly sunny.16 mph36%29.98 "HgN/A
12:30 PM95 °FPartly sunny.14 mph34%29.98 "HgN/A
12:00 PM93 °FScattered clouds.16 mph47%29.95 "HgN/A
11:30 AM93 °FPartly sunny.17 mph34%30.01 "HgN/A
11:00 AM91 °FSunny.17 mph38%30.01 "Hg10 mi
10:30 AM91 °FSunny.14 mph41%30.01 "Hg10 mi
10:00 AM88 °FSunny.15 mph49%30.01 "Hg10 mi
9:30 AM82 °FSunny.9 mph62%29.98 "Hg10 mi
8:30 AM82 °FSunny.9 mph62%29.98 "Hg10 mi
8:00 AM82 °FSunny.10 mph66%29.98 "Hg10 mi
7:30 AM81 °FSunny.9 mph70%29.98 "Hg10 mi
7:00 AM79 °FSunny.8 mph74%29.98 "Hg10 mi
6:30 AM79 °FSunny.7 mph74%29.95 "Hg10 mi
6:00 AM79 °FClear.7 mph74%29.95 "Hg10 mi
5:30 AM79 °FClear.7 mph70%29.92 "Hg10 mi
5:00 AM79 °FClear.6 mph74%29.92 "Hg10 mi
4:30 AM81 °FClear.7 mph66%29.92 "Hg10 mi
4:00 AM81 °FClear.7 mph66%29.92 "Hg10 mi
3:30 AM81 °FClear.7 mph66%29.92 "Hg10 mi
3:00 AM81 °FClear.7 mph66%29.92 "Hg10 mi
2:30 AM81 °FClear.7 mph66%29.92 "Hg10 mi
2:00 AM82 °FClear.7 mph62%29.92 "Hg10 mi
Weather by CustomWeather, © 2015

See weather overviewHow to use our weather pages